WIII

Jakarta/Soekarno-Hatta International Airport

Airport
ICAO code
WIII
IATA Code
CGK
Summary
ICAO Region
APAC
ICAO Territory
Location

Tangerang, Banten

Serving
Jakarta
Elevation
32 ft
Coordinates
6° 7' 37" S , 106° 39' 15" E
KCC
Metar
Observation
WIII 281830Z 23005KT 4000 HZ SCT020 26/25 Q1006 NOSIG
Station
Jakarta / Soekarno-Hatta
Date/Time
2023-01-28 19:30:00
Wind direction
230°
Wind speed
05 kts
Lowest cloud amount
scattered clouds
Temperature
26°C
Dew point
25°C
Humidity
94%
QNH
1006 hPa
Weather condition
n/a

The principal international airport serving the Jakarta region.

Climatology

Tropical Savanna climate (Köppen climate classification Aw) - monthly mean temperature above 18°C in every month of the year and a pronounced dry season.

Airport map

Aerial View

Airport accidents

SKYbrary Partners:

Safety knowledge contributed by: